Theta_e
325 324 324 324 323 323 322 322 320 320 321 322 322 321 321 321 319 321 313 318 320 327 325 318 316 315 313 309 310 309 297 296 299 304 306 309 308 312 313 312 316 323 325 330 338
325 325 325 324 323 322 322 321 320 320 321 321 321 321 320 319 320 318 324 329 327 328 315 314 313 313 307 307 306 302 296 299 305 307 308 309 306 306 305 305 314 327 333 335 337
325 325 324 324 323 322 322 320 320 320 320 320 320 320 319 318 318 317 329 330 330 325 317 317 318 314 307 306 306 304 300 305 307 308 306 302 304 307 303 303 312 326 329 332 333
324 324 323 323 323 322 321 319 320 320 320 320 321 321 319 320 309 314 331 330 329 320 318 316 315 309 305 304 309 302 306 306 306 307 307 306 307 307 302 308 313 319 331 331 330
322 322 322 322 322 321 320 319 319 319 319 320 320 321 317 315 318 323 332 330 320 320 317 315 312 310 306 307 308 306 306 309 310 308 305 309 307 307 306 312 314 318 327 328 329
321 321 320 321 321 320 320 319 318 318 318 319 320 320 317 307 321 321 321 319 319 318 317 316 313 312 309 308 306 309 309 307 308 308 308 306 305 304 307 312 313 312 310 317 324
320 320 320 320 320 319 319 318 317 317 318 319 321 320 315 308 319 319 322 319 320 319 315 316 314 310 309 305 311 310 305 307 306 307 307 307 302 303 307 310 309 310 310 311 313
321 320 319 318 318 318 317 316 316 317 318 319 321 318 311 321 319 320 321 320 321 320 318 317 316 311 308 310 308 304 303 299 306 307 309 304 299 307 309 308 308 307 307 310 311
320 319 318 317 317 316 316 316 316 318 319 319 315 315 311 324 318 321 318 318 319 319 318 320 315 308 308 302 298 300 295 299 303 309 307 304 299 307 308 309 307 307 307 308 308
320 319 318 317 316 316 315 316 318 317 317 318 319 307 311 310 319 320 318 320 318 316 313 311 308 304 303 299 292 296 297 298 299 305 304 301 300 304 307 306 308 307 308 308 309
319 319 318 317 317 316 315 315 309 309 311 309 310 309 309 315 320 315 320 318 316 311 303 307 300 297 302 305 305 303 301 300 302 308 305 302 300 303 306 307 303 306 306 307 309
319 318 317 317 318 318 314 309 311 313 305 314 312 310 314 315 310 315 317 310 308 302 305 302 299 305 310 309 307 305 302 299 304 308 305 301 300 303 305 306 306 307 306 307 308
318 317 317 316 317 315 312 312 316 317 305 307 310 309 313 313 307 308 312 308 306 303 304 300 303 309 308 305 304 302 301 301 301 305 305 301 299 301 306 307 309 308 307 308 309
317 316 315 315 312 314 310 317 318 316 297 300 303 306 308 308 303 310 313 307 306 303 304 302 306 305 306 305 304 298 306 305 303 299 294 300 293 300 304 305 306 308 306 306 308
316 315 314 316 312 309 313 318 316 316 283 303 303 312 309 303 306 306 310 306 302 303 303 301 305 304 304 305 307 302 308 304 302 298 295 297 292 299 301 302 305 304 306 306 308
314 315 314 314 313 317 316 316 316 298 285 298 307 304 303 303 305 309 306 307 307 303 303 302 309 306 305 308 307 308 304 302 300 296 289 296 293 295 296 301 305 308 309 310 310
310 314 315 318 308 316 320 313 293 287 299 297 301 304 303 301 302 303 303 299 298 295 295 300 302 306 308 302 306 303 297 289 288 288 288 299 297 298 302 307 308 308 308 310 310
309 313 315 317 317 315 315 302 286 292 294 301 303 302 299 303 302 301 301 298 302 299 295 293 293 302 307 302 301 300 298 291 286 286 290 298 292 297 307 308 309 309 310 310 310
308 313 314 316 318 318 307 291 289 293 297 297 298 297 297 301 301 300 298 299 302 304 295 295 297 305 307 306 304 299 296 302 294 295 289 292 297 301 305 307 307 307 309 308 308
304 310 311 317 319 312 301 293 294 299 300 299 292 297 295 297 298 297 297 301 300 305 305 301 294 303 306 306 304 302 303 293 293 286 284 291 292 293 300 304 306 306 306 306 308
303 304 313 317 317 305 293 294 297 302 301 298 296 295 296 297 298 296 299 302 303 303 305 301 297 298 303 300 298 298 295 297 296 293 286 285 288 301 301 305 305 306 308 310 308
301 298 313 316 299 300 295 297 300 300 303 300 299 298 296 297 297 299 298 302 306 305 300 303 299 293 297 304 305 301 298 298 291 290 293 291 291 305 304 305 308 308 309 309 309
297 301 313 311 292 295 298 299 301 299 299 299 298 300 300 297 293 299 301 306 307 304 301 302 295 289 292 297 300 297 299 299 298 295 292 287 290 305 305 305 308 307 308 311 311
301 291 304 305 301 297 296 296 296 302 300 301 300 300 298 296 299 297 299 305 307 303 304 305 299 293 288 292 297 294 295 296 295 290 291 292 295 300 303 305 307 308 309 309 310
303 295 301 293 295 296 298 297 296 295 301 302 299 299 297 294 295 294 300 303 305 304 305 302 294 298 298 298 297 296 295 295 293 295 291 295 296 300 303 306 308 309 309 310 310
296 297 303 298 297 296 296 295 295 297 298 296 297 299 299 295 296 293 297 298 300 303 301 302 292 295 294 297 297 294 296 295 296 297 297 297 297 305 306 307 306 309 309 309 310
306 306 303 298 296 294 294 296 296 299 300 301 299 299 299 300 301 301 302 304 304 301 298 296 294 290 289 296 295 290 294 296 297 299 298 294 299 305 304 306 307 307 309 309 310
Wind_Speed
9 8 8 9 9 10 12 13 14 15 15 18 18 17 17 18 19 2 5 5 5 9 7 3 6 9 8 7 7 3 1 7 10 13 8 4 3 1 7 2 3 6 9 17 18
10 10 7 7 9 9 9 12 14 16 15 17 20 18 15 16 6 8 5 8 8 7 2 5 6 10 5 7 5 3 2 9 10 7 3 3 2 4 4 3 4 11 16 21 21
9 10 9 9 8 9 10 9 13 14 17 17 18 20 19 11 5 7 11 11 8 5 0 5 10 8 5 4 8 8 9 10 14 6 4 2 3 2 2 6 6 22 20 20 17
10 10 9 10 9 9 8 10 11 14 15 18 19 20 25 3 4 2 8 8 8 0 2 6 8 6 5 8 10 6 10 8 9 5 4 7 7 8 2 8 8 15 23 20 18
10 10 10 10 9 10 10 8 11 13 14 17 18 18 10 4 9 5 5 6 5 3 4 8 8 6 7 8 10 7 7 8 9 10 5 3 6 7 8 10 2 7 19 19 18
10 11 9 10 10 10 9 8 10 12 14 15 16 17 5 4 1 12 10 6 7 7 8 9 8 5 5 7 7 9 14 9 8 8 7 4 6 2 13 8 11 3 9 12 15
11 11 10 9 9 9 9 10 9 13 14 13 13 4 5 15 3 8 12 9 8 9 7 2 7 8 8 9 8 13 11 12 8 7 9 7 8 9 11 9 10 12 9 10 12
12 12 11 9 8 9 9 11 13 14 14 13 5 3 9 8 6 13 11 7 9 7 2 4 9 6 3 7 9 7 7 7 10 10 17 7 16 12 13 9 15 13 11 10 12
14 12 11 10 8 8 10 12 15 17 13 8 3 4 10 5 6 7 4 8 9 5 4 1 3 4 6 4 5 4 7 10 18 15 16 13 11 10 10 8 12 12 8 8 8
15 13 12 10 7 6 9 12 18 8 7 5 6 4 7 8 6 6 7 5 7 4 4 4 3 4 4 2 5 7 7 9 12 12 9 8 7 8 11 7 10 10 9 8 9
16 14 13 10 7 2 5 6 4 3 4 10 8 6 9 3 2 2 7 6 2 5 5 6 3 8 13 11 9 11 12 13 10 13 7 7 6 11 9 10 8 10 9 9 10
17 15 13 10 8 5 1 3 5 2 8 12 18 19 21 13 8 6 3 6 6 8 6 6 12 15 13 11 9 8 9 7 10 13 8 9 9 7 7 9 10 11 11 11 8
18 17 13 11 7 4 5 9 8 13 4 8 12 10 14 10 15 9 8 5 7 7 9 12 12 12 10 5 7 8 6 5 9 13 12 7 10 8 12 12 15 13 10 11 12
20 18 14 14 3 4 6 10 11 4 4 8 8 10 11 8 9 12 12 9 8 14 9 12 13 18 16 6 4 8 8 6 8 5 9 2 16 11 13 14 11 18 11 10 10
21 19 21 20 5 8 6 14 4 4 4 9 9 3 8 12 4 6 10 9 18 10 6 10 6 5 5 7 5 9 6 3 4 7 7 11 3 15 8 13 17 12 11 10 10
21 22 22 12 4 7 10 6 5 4 11 7 5 5 6 9 5 3 3 4 5 8 13 17 12 6 4 3 9 7 4 6 5 2 3 18 7 16 5 7 3 8 10 10 9
20 25 22 13 14 15 5 11 5 7 7 5 6 8 8 7 5 5 4 10 8 7 15 7 19 15 6 2 3 3 3 4 4 0 7 7 5 14 9 2 7 7 8 9 8
18 26 22 16 11 10 5 6 7 17 20 6 10 11 11 10 8 10 8 10 11 5 1 9 6 19 11 11 8 8 9 6 4 2 5 3 5 8 5 2 6 7 9 8 8
17 15 11 17 16 7 8 15 13 19 21 9 4 8 9 9 8 8 11 12 9 17 8 6 8 5 17 8 11 6 6 13 6 5 2 5 9 9 11 12 4 7 9 8 8
10 16 15 23 15 6 14 15 19 22 5 26 20 7 10 9 10 11 8 9 15 17 16 7 3 5 6 7 6 7 3 2 3 3 7 5 6 6 9 7 5 9 6 5 7
12 12 14 24 11 11 18 26 22 15 25 7 10 5 8 10 13 10 7 8 15 12 16 8 2 8 5 4 9 3 3 3 4 5 5 8 6 7 9 3 5 6 6 6 7
14 17 14 21 16 17 22 38 14 22 19 15 13 9 9 9 10 15 14 8 10 13 12 10 5 5 10 7 6 9 9 9 6 7 6 8 10 8 9 6 6 8 9 6 5
15 8 18 24 20 20 32 27 23 17 29 16 14 10 5 5 11 9 11 11 7 12 8 7 3 1 8 7 5 6 5 6 5 4 10 9 8 3 6 10 11 11 9 8 9
13 11 10 17 17 28 28 21 29 22 23 12 13 11 9 6 4 1 6 5 2 5 4 6 4 8 11 7 2 5 5 6 5 4 11 12 20 11 8 12 14 10 9 10 10
14 6 6 25 21 24 32 28 25 20 25 14 16 23 11 6 3 6 3 1 7 1 4 5 5 2 7 4 4 10 15 14 12 16 17 16 24 13 9 13 15 13 12 13 10
9 6 8 24 39 31 19 17 34 28 23 34 19 18 17 11 8 5 3 3 3 3 3 0 2 2 16 4 7 21 21 15 19 21 22 26 32 18 21 16 14 16 11 10 10
8 3 8 20 29 21 25 32 33 25 23 23 29 12 14 18 8 6 4 4 2 6 8 6 5 3 14 4 8 23 8 18 21 18 19 26 28 19 26 22 17 16 16 16 13
Wind_Direction
268 270 292 307 322 327 332 331 334 329 334 331 333 333 334 333 313 155 244 221 165 169 206 243 212 232 253 262 260 242 12 277 269 285 194 163 127 129 141 168 69 126 141 152 144
264 272 270 290 309 319 329 328 328 329 332 330 328 329 337 336 295 260 227 134 144 192 206 266 280 244 242 242 258 134 203 250 250 336 348 124 103 141 133 246 125 91 116 139 148
249 261 273 282 292 307 319 327 324 328 325 326 326 327 327 322 286 243 164 161 158 213 336 289 281 293 292 271 266 251 232 259 284 294 38 18 279 144 125 303 185 147 148 151 158
247 255 263 275 288 299 309 318 319 322 324 323 326 330 318 161 312 149 177 168 165 196 345 296 290 296 285 281 277 286 257 258 279 317 6 326 325 325 248 246 117 151 157 160 167
236 248 257 265 279 291 303 313 314 315 319 320 325 335 342 337 260 165 159 199 171 152 228 254 283 280 276 287 324 308 282 262 280 299 274 245 277 270 300 299 11 138 156 167 173
234 237 240 258 270 282 292 301 307 308 309 315 322 323 296 275 159 153 183 179 241 194 234 245 250 304 296 309 307 291 302 299 298 300 308 274 258 284 281 290 297 245 207 177 178
230 233 232 243 261 274 289 297 300 298 301 308 322 306 268 244 123 186 193 205 213 215 237 333 16 38 334 322 293 323 324 316 304 282 281 286 300 246 245 247 251 255 240 213 196
225 228 229 229 250 273 287 295 295 290 294 296 317 285 250 264 302 223 218 217 253 254 350 356 33 4 285 270 310 316 307 285 263 253 255 183 254 249 251 231 239 235 232 219 222
224 220 223 224 231 265 289 293 288 283 280 270 289 202 263 265 225 238 257 207 219 219 241 211 75 224 301 291 333 252 259 268 284 244 242 199 231 238 267 286 262 212 223 236 234
221 215 217 219 218 258 300 282 271 336 271 208 253 338 264 239 279 212 230 217 245 211 215 221 196 209 286 126 239 264 280 277 260 288 277 175 214 238 271 265 238 222 228 236 223
220 217 209 208 197 212 352 330 319 294 242 200 196 239 296 190 108 271 207 220 262 317 237 260 211 235 238 222 229 247 257 270 292 309 338 282 232 234 253 290 241 255 225 231 219
215 209 200 188 177 153 123 217 240 306 292 246 252 257 278 278 288 210 265 184 187 233 261 272 245 246 254 270 276 300 300 303 307 310 321 299 257 241 251 247 256 253 215 215 219
210 201 188 160 145 144 208 222 316 351 286 259 229 238 233 227 247 210 181 217 212 224 231 240 248 263 256 267 303 284 263 285 276 294 303 339 297 298 272 255 251 244 208 204 197
210 192 160 134 146 185 216 234 255 280 299 261 218 242 215 214 269 215 209 189 208 235 253 265 244 246 260 225 235 275 258 278 280 302 269 83 292 280 285 287 251 245 221 210 208
220 183 163 173 177 184 198 203 198 82 270 234 207 177 172 175 143 246 194 185 223 214 182 227 291 228 255 216 214 255 264 290 326 323 358 299 302 283 303 307 288 217 213 213 150
250 183 169 199 271 240 207 142 100 136 235 251 131 168 130 184 175 27 153 201 196 217 260 261 286 288 238 245 217 247 308 323 284 122 302 265 171 285 250 243 3 36 84 106 115
271 184 185 172 217 239 241 145 137 192 241 210 167 156 175 176 221 225 184 190 179 168 235 277 252 264 186 259 251 122 47 320 337 4 224 285 272 239 285 329 136 129 122 129 128
264 194 202 191 220 221 189 142 178 193 215 197 170 165 177 168 221 204 182 220 224 222 286 199 257 220 191 187 184 183 163 172 238 254 274 333 264 275 271 295 165 157 166 151 157
261 211 196 194 201 203 179 198 194 204 201 235 315 162 194 201 158 184 212 216 206 213 202 229 241 244 181 153 158 232 185 216 225 257 275 241 284 298 288 354 238 162 152 184 190
250 220 202 182 191 189 201 206 214 221 212 203 230 205 174 188 180 175 185 216 224 219 211 276 278 327 165 126 197 191 184 24 297 225 251 235 235 245 343 339 45 352 343 210 195
236 225 174 178 185 183 207 216 212 213 225 207 228 250 206 179 188 184 210 245 191 200 201 207 171 279 38 194 174 213 235 228 181 182 228 270 250 220 274 258 304 296 288 261 259
224 223 171 166 183 187 202 211 214 220 235 229 244 263 236 223 189 194 206 217 187 193 198 205 177 194 244 248 213 200 206 183 191 256 240 244 247 263 260 270 260 269 278 270 199
216 214 184 177 189 177 216 212 214 223 207 228 231 212 181 212 225 198 214 214 231 181 183 179 222 58 337 330 304 216 220 227 233 176 234 247 270 271 289 292 278 260 246 246 232
212 186 187 185 205 189 187 200 210 213 232 221 240 257 234 207 178 264 181 27 131 112 169 116 193 167 202 203 111 277 288 281 261 241 266 256 275 261 253 245 254 257 252 250 234
219 209 184 170 194 206 187 193 189 202 219 207 239 230 202 182 207 177 221 73 39 5 73 126 205 218 259 256 332 292 283 287 290 278 267 272 272 286 260 253 255 243 248 251 247
224 187 158 171 193 202 193 198 197 194 185 217 231 207 218 202 169 110 129 121 186 53 109 121 245 160 269 355 311 283 271 277 255 266 279 286 278 280 285 269 263 267 262 261 267
194 196 169 173 194 194 202 200 203 191 219 205 214 227 226 218 180 202 128 113 159 158 179 157 138 118 262 50 359 278 216 253 268 256 253 264 277 289 273 276 278 286 278 270 258